sat.trackr.live / text

‹ back to catalog

STARLINK-4699

NORAD 53716 · 2022-107S

PAYLOAD ACTIVE UNKNOWN

§ Identity

Operator
Country
US
Launch date
2022-09-05
Launch site
AFETR
Launch vehicle
Mass (kg)
RCS (m²)

Purposes: comms

External: N2YO · Heavens-Above · Gunter

§ Orbital elements

Epoch: 2026-09-20T22:33:00.499968Z

Period
93.85 min
Inclination
53.1596°
Eccentricity
0.0001193
Mean motion
15.34385480 rev/d
Perigee alt
461.9 km
Apogee alt
463.6 km
Semi-major
6,840.9 km
B*
2.2137e-6
RAAN
83.3364°
Arg perigee
89.4162°
Mean anomaly
270.6977°
Rev number
22,407

§ Raw data

STARLINK-46991 53716U 22107S   26263.93958912 -.00000301  00000+0  22137-5 0  99932 53716  53.1596  83.3364 0001193  89.4162 270.6977 15.34385480224078

JSON: /api/v1/satellites/53716 · /tle

For live sub-satellite position, see the globe view (requires WebGL).

§ Visibility from observer

Set your observer location to see the next 7 days of passes ≥ 10°. The values pass through the URL so the page stays shareable.

No JS? Fill the form by hand. The geolocation button needs JavaScript.